McCarran International Airport
KLAS : rendu visible

Aérodrome :











RETROUVEZ-NOUS SUR...

 
LOGIN :

S'inscrire | Disclaimer

   EN    FR    IT 

 









Légende :    VFR   VFR Marginal   IFR   IFR Intensif   IFR Très Intensif
Visi : 
Plafond : 
>= 8 km
>= 3000ft
5 à 8 km
1000 à 3000 ft
1500m à 5 km
500 à 1000 ft
800 à 1500m
200 à 500 ft
< 800m
< 200 ft
Symboles :   Orages  Brouillard  Fortes neiges  Fortes précipitations  Vent > 20 kt






- Altitude de l'aérodrome : 2181 ft
- Code IATA : LAS


KLAS - McCarran International

DERNIER METAR :
  • 091656Z VRB04KT 10SM CLR 33/M01 A2999 RMK AO2 SLP125 T03281011

METARs EXPIRÉS :
  • 091556Z 02003KT 10SM CLR 31/M01 A2999 RMK AO2 SLP124 T03111006
  • 091456Z 03004KT 10SM CLR 29/M01 A2998 RMK AO2 SLP121 T02941006 51018

TAF KLAS
Valide du 09 à 15h jusqu'au 10 à 18h UTC


091437Z 0915/1018 VRB05KT P6SM SKC
FM091800 08007KT P6SM FEW150
FM100400 21009KT P6SM SKC
FM101400 VRB05KT P6SM SKC
FIR KZLA / Amérique du Nord



MET'MAP, la Météo Aéronautique d'un coup d'oeil ! - Copyright ORBIFLY Décembre 2007 - Disclaimer

ORBIFLY MET'MAP TEAM :

Programmation & Développement : Alexandra Zaïnal
Sur une idée originale de : Baudouin d'Aumeries
Assistance à la programmation : Marc-Olivier Méhu
Soutien technique & logistique : Manuel Goepfert

Contact : metmap@orbifly.com




SOURCES & CREDITS :

   NOAA       Earth
Advisory